Location: Unspecified
(0.0000°N, 0.0000°E)
Time: 03:12:45
(UTC+00:00)

Envisat - Pass Details

Date: 09 January 2018
Orbit: 764 x 766 km, 98.2° (Epoch: 21 June)

Event Time Altitude Azimuth Distance (km) Brightness Sun altitude
Rises 20:13:51 0° 174° (S) 3,230 6.5 -29.1°
Reaches altitude 10° 20:16:11 10° 178° (S) 2,302 5.7 -29.6°
Enters shadow 20:20:25 55° 216° (SW) 917 3.5 -30.6°
